Regional Weather Roundup
Issued by NWS

Home | Current Version | Previous Version | Text Only | Print | Product List | Glossary Off
Versions: 1 2 3 4 5 6 7 8 9 10 11 12 13 14 15 16 17 18 19 20 21 22 23 24 25 26 27 28 29 30 31 32 33 34 35 36 37 38 39 40 41 42 43 44 45 46 47 48 49 50

000
ASUS44 KMEG 180800
RWRTN
TENNESSEE HOURLY STATE WEATHER ROUNDUP
NATIONAL WEATHER SERVICE MEMPHIS TN
300 AM CDT FRI AUG 18 2017

TNZ002-004-019-021-049-052-054-088>092-180900-
WEST TENNESSEE

CITY           SKY/WX    TMP DP  RH WIND       PRES   REMARKS
MEMPHIS INTL   PTCLDY    73  72  96 SW5       29.97R
NWS MEMPHIS      N/A     74 N/A N/A MISG        N/A
JACKSON        PTCLDY    73  73 100 SW6       29.95S
DYERSBURG      PTCLDY    74  73  97 W5        29.96R
$$

TNZ008-025-027-028-033-062-065-066-180900-
NORTH MIDDLE TENNESSEE

CITY           SKY/WX    TMP DP  RH WIND       PRES   REMARKS
NASHVILLE      MOCLDY    76  73  91 W3        29.93F
CLARKSVILLE    CLOUDY    76  73  91 SW3       29.92S
SMYRNA         CLOUDY    76  73  91 SW6       29.94F
CROSSVILLE     RAIN      71  70  96 W8        30.00F
$$

TNZ061-075-076-078-094-096-097-180900-
SOUTH MIDDLE TENNESSEE

CITY           SKY/WX    TMP DP  RH WIND       PRES   REMARKS
TULLAHOMA      CLOUDY    73  72  94 SW3       29.98F
WINCHESTER     CLOUDY    75  73  94 CALM      29.98S
$$

TNZ017-018-042-046-047-180900-
NORTHEAST TENNESSEE

CITY           SKY/WX    TMP DP  RH WIND       PRES   REMARKS
TRI CITIES     PTCLDY    69  69 100 CALM      29.98S
$$

TNZ012-013-036-069-073-074-180900-
CENTRAL EAST TENNESSEE

CITY           SKY/WX    TMP DP  RH WIND       PRES   REMARKS
KNOXVILLE      CLOUDY    75  70  84 SW8       29.94F
OAK RIDGE      CLOUDY    76  71  85 CALM      29.95F
GATLINBURG     PTCLDY    70  68  94 CALM      29.95F
$$

TNZ083-085-099-180900-
SOUTHEAST TENNESSEE

CITY           SKY/WX    TMP DP  RH WIND       PRES   REMARKS
CHATTANOOGA    CLOUDY    79  72  79 S6        29.96S
$$

SKY/WX REPORTED AS FAIR MEANS FEW OR NO CLOUDS BELOW
12 THOUSAND FEET.




USA.gov is the U.S. government's official web portal to all federal, state and local government web resources and services.